Tracking 22881 objects as of 19-Apr-2021
HD Live streaming from Space Station
objects crossing your sky now

STARLINK-1735

Track STARLINK-1735 now!
10-day predictions
STARLINK-1735 is classified as:


NORAD ID: 46565
Int'l Code: 2020-070AK
Perigee: 553.1 km
Apogee: 555.5 km
Inclination: 53.1 °
Period: 95.6 minutes
Semi major axis: 6925 km
RCS: Unknown
Launch date: October 6, 2020
Source: United States (US)
Launch site: AIR FORCE EASTERN TEST RANGE (AFETR)
aabbcc
Your satellite tracking list
Your tracking list is empty




NASA's NSSDC Master Catalog

Two Line Element Set (TLE):
1 46565U 20070AK  21108.85074324 -.00000178  00000-0  69376-5 0  9993
2 46565  53.0514 253.5601 0001729 109.8347 250.2828 15.06403055 30615
Source of the keplerian elements: AFSPC